Simultaneous Nadir Overpasses (SNOs) Predictions

Prediction of SNOs between NPP and GCOM-C Satellite Orbit:

Table of predicted SNOs for the next 14.0 days since TLE Epoch: 1/8/2022
Index Date (NPP) Time (NPP) Lat,Lon (NPP) SZA (NPP ) Date (GCOM-C) Time (GCOM-C) Lat,Lon (GCOM-C) SZA (GCOM-C ) Distance(km) Time Diff (sec)
1 01/15/2022 12:46:59 69.32, -14.21 90.34 01/15/2022 12:48:10 69.23, -13.08 90.22 45.33 71
2 01/15/2022 13:37:34 -68.85, 153.75 90.15 01/15/2022 13:38:47 -68.86, 153.78 90.15 1.43 73
3 01/15/2022 14:28:19 68.79, -38.86 89.78 01/15/2022 14:29:15 68.80, -38.91 89.79 2.25 56
4 01/15/2022 15:19:03 -68.81, 128.43 90.21 01/15/2022 15:19:45 -68.81, 128.47 90.22 1.71 42
5 01/15/2022 16:09:48 68.75, -64.18 89.73 01/15/2022 16:10:13 68.75, -64.22 89.73 1.51 25
6 01/15/2022 17:00:32 -68.77, 103.11 90.27 01/15/2022 17:00:43 -68.75, 103.16 90.29 2.68 11
7 01/15/2022 17:51:17 68.71, -89.50 89.67 01/15/2022 17:51:11 68.70, -89.53 89.66 1.70 6
8 01/15/2022 18:42:00 -68.67, 77.87 90.38 01/15/2022 18:41:41 -68.70, 77.85 90.35 2.87 19
9 01/15/2022 19:32:46 68.66,-114.81 89.61 01/15/2022 19:32:09 68.64,-114.84 89.59 2.63 37
10 01/15/2022 20:23:29 -68.63, 52.55 90.44 01/15/2022 20:22:39 -68.64, 52.54 90.42 1.57 50
11 01/15/2022 21:14:15 68.62,-140.13 89.55 01/15/2022 21:13:06 68.64,-140.07 89.58 3.29 69
12 01/15/2022 22:04:54 -68.37, 27.51 90.71 01/15/2022 22:03:41 -68.37, 26.95 90.69 22.81 73
13 01/15/2022 22:55:28 67.72,-164.36 88.61 01/15/2022 22:54:20 67.72,-166.47 88.68 89.39 68



Historial Predications of SNOs between NPP and GCOM-C
